2018-004Z (43134 NORAD) Tracking and Keplerian Element Data

This shows tracking and keplerian element data for the satellite.

Feedback or suggestion? Click here.




ElementValue
Catalog43134
Name2018-004Z
Epoch Orbit27857
Epoch Day13.69420807
Epoch Year2023
RAAN93.342
Inclination97.35
Eccentricity0.0006561
Argument of Perigee340.2859
Mean Anonmoly19.813
Mean Motion15.36808154
Decay Rate0.00033811
L11 43134U 18004Z 23013.69420807 .00033811 00000+0 93860-3 0 9997
L22 43134 97.3500 93.3420 0006561 340.2859 19.8130 15.36808154278573



Live tracking and technical data element details for 2018-004Z (NORAD 43134). 2018-004Z can be tracked NOW for your location showing map with azimuth and elevation plus other details from your city location.







IsCatalogInMostPopularTable: catalog: 43134, numindb: 322
Update: records affected: 1



GetName: 43134 2018-004Z

Hit Count: updated at: Thu, 22 May 2025 02:40:48 GMT